GFSGL_850_thetae_057.txt.gz
Theta_e
307 308 310 311 315 315 315 314 314 314 314 312 305 296 294 293 293 293 293 293 292 292 291 291 290 290 289 288 288 287 287 286 286 286 286 285 285 284 284 284 284 284 284
307 308 310 312 314 315 313 313 313 313 312 308 299 294 293 293 293 293 293 292 292 291 291 291 290 290 289 288 287 287 286 286 286 286 286 286 285 285 284 284 284 284 284
307 307 309 311 313 313 312 312 312 312 310 305 295 293 293 293 293 292 292 292 291 291 290 291 291 290 289 288 287 287 286 286 286 286 286 285 285 285 285 285 284 284 283
308 307 309 311 311 311 310 311 311 311 309 303 294 292 292 292 292 292 291 290 290 290 291 291 291 289 288 288 287 287 286 286 286 286 285 285 285 285 285 285 285 283 283
308 307 308 310 312 311 309 309 309 309 308 301 293 292 292 291 291 291 290 290 290 291 291 290 290 288 288 287 287 286 286 286 285 285 285 285 285 285 284 284 283 284 283
309 308 307 309 311 311 309 308 308 308 305 297 292 292 291 290 290 290 290 289 289 292 289 290 288 288 287 287 287 286 286 285 285 285 285 284 284 284 284 282 282 281 281
308 307 307 308 309 310 309 308 308 308 305 296 291 291 290 290 290 289 289 288 290 290 289 289 288 287 287 287 286 286 286 285 285 285 284 284 283 283 282 281 280 280 279
308 307 306 306 307 307 308 308 308 306 303 295 291 290 290 290 289 288 288 288 292 287 288 290 288 287 287 286 286 286 285 285 285 283 283 283 282 282 281 280 279 279 278
306 306 305 304 304 305 306 307 306 303 298 292 290 290 289 289 288 288 287 289 293 287 289 291 288 287 286 286 285 285 285 285 284 283 283 283 282 281 280 279 279 278 277
305 304 303 301 301 302 303 304 302 298 294 291 289 289 289 288 287 287 287 291 293 292 291 291 290 286 285 285 285 285 285 285 284 284 284 283 282 281 279 278 278 277 276
302 301 299 298 298 299 300 300 299 295 292 290 289 289 289 288 287 286 289 292 293 293 292 291 289 285 285 285 284 284 285 284 284 284 283 283 281 279 278 277 276 276 275
298 297 296 296 296 296 296 296 295 292 292 290 289 289 290 287 286 289 291 292 292 292 291 291 286 285 285 284 284 284 284 283 282 281 281 280 279 279 278 276 275 275 274
297 295 295 294 294 294 294 293 292 290 291 292 294 293 290 288 289 291 293 292 290 290 291 287 285 285 285 284 284 284 282 281 281 280 280 279 279 277 276 275 274 273 272
296 295 294 293 293 292 292 292 291 292 295 294 293 290 289 290 291 292 293 292 291 290 287 286 285 285 285 284 284 282 281 280 279 279 278 277 276 275 274 273 272 271 271
302 300 299 297 295 294 293 294 294 293 293 292 291 290 292 292 293 293 292 289 288 286 285 285 285 285 284 283 282 281 280 280 279 277 275 274 273 272 271 270 270 269 269
302 301 300 299 297 296 295 295 293 291 291 292 293 293 294 293 290 288 288 287 287 286 286 286 285 284 283 282 281 280 280 277 275 274 273 272 271 270 269 268 267 267 268
297 296 296 295 295 295 294 294 294 293 292 291 290 289 289 289 289 288 288 287 287 286 285 284 283 283 282 282 281 278 276 275 274 273 272 271 270 269 268 267 266 267 267
294 293 293 293 292 292 292 291 291 291 291 290 290 290 289 289 288 288 287 286 285 284 284 283 282 282 281 278 276 275 275 274 273 272 271 270 269 268 267 267 266 266 266
290 290 290 290 290 290 290 290 290 290 289 289 289 288 288 287 286 286 286 285 283 283 282 281 281 278 276 276 275 275 274 273 272 271 269 268 268 268 267 267 266 266 266
289 289 289 289 289 288 288 288 288 288 288 287 286 285 285 284 284 283 283 282 281 281 280 278 276 275 274 274 274 273 273 272 271 270 269 268 268 268 267 267 267 266 266
288 288 288 288 288 288 288 287 287 286 285 285 284 283 283 282 282 281 280 280 280 279 276 275 274 274 273 273 273 272 271 271 269 269 268 268 267 267 267 267 267 266 266
288 288 287 287 287 287 287 286 285 285 284 283 283 282 282 281 280 280 279 278 276 275 274 274 273 273 273 272 271 271 270 270 269 268 268 267 267 267 267 267 266 266 266
287 287 287 287 286 286 285 285 284 284 283 282 281 281 280 279 278 277 275 274 274 273 273 273 272 271 271 270 270 269 269 269 268 268 268 267 267 267 267 266 266 266 266
285 285 285 285 284 284 283 283 282 282 281 280 279 278 277 276 275 274 273 273 272 272 272 272 271 270 269 269 269 268 268 267 267 267 267 267 267 267 266 266 266 265 265
283 283 282 282 282 281 281 280 280 279 278 278 277 276 275 274 273 273 272 272 272 272 271 270 269 269 269 269 269 268 268 268 268 267 266 266 266 265 265 265 265 264 264
280 280 279 279 278 278 277 277 276 275 274 274 273 273 273 273 273 272 272 271 270 270 269 269 269 269 269 269 268 268 268 268 268 267 267 267 266 266 265 265 265 265 265

GFSGL_850_thetae_060.txt.gz
Theta_e
311 309 308 308 308 311 313 317 315 315 316 315 315 315 313 308 298 294 294 293 293 292 292 292 291 291 290 290 294 290 288 287 287 287 287 286 286 286 286 286 285 285 285
312 310 308 307 308 310 312 313 315 315 316 314 314 313 311 303 295 293 293 293 292 292 292 291 291 290 292 296 291 288 288 287 287 287 287 286 286 286 286 286 286 286 285
312 311 309 307 308 309 310 312 315 315 314 314 313 311 308 298 294 293 293 292 292 292 291 291 290 292 297 291 290 288 287 287 287 286 286 286 286 286 286 286 285 286 286
314 311 310 308 308 308 309 312 314 314 312 312 312 309 304 297 293 292 292 292 291 291 290 290 292 295 292 290 289 288 287 287 287 286 286 286 286 286 286 285 285 284 284
314 313 311 309 307 308 309 311 313 312 311 311 310 307 301 294 292 292 292 291 291 290 290 290 292 295 292 289 288 288 287 287 286 286 286 286 286 285 285 284 284 284 283
313 313 310 309 307 308 309 311 311 310 310 309 308 306 301 295 291 291 291 291 290 290 290 291 293 294 291 288 287 287 287 286 286 286 286 285 285 284 284 283 282 282 280
313 312 310 309 307 307 308 309 311 309 309 309 308 305 299 294 291 290 290 290 290 289 289 292 295 294 290 287 287 287 286 286 286 285 285 285 284 283 283 283 281 281 280
311 309 308 307 306 306 307 308 310 309 308 308 307 304 299 292 290 289 289 289 288 288 289 292 295 293 291 286 287 286 286 286 285 285 285 284 284 283 282 282 281 281 280
311 309 307 306 305 305 306 307 308 308 307 307 305 302 295 289 289 288 288 288 287 287 289 292 293 293 291 289 286 287 285 285 285 284 284 284 283 283 281 280 280 280 279
309 307 305 303 302 303 304 305 306 306 305 305 301 296 292 290 288 288 287 287 287 287 291 292 293 293 290 290 289 286 285 285 284 284 284 283 283 283 282 281 279 278 277
306 304 302 300 300 300 300 301 302 302 301 299 296 292 289 289 289 288 287 287 287 290 290 291 293 293 291 290 289 285 284 284 284 284 284 284 283 282 281 280 278 277 276
301 300 299 298 297 296 296 297 297 298 297 294 290 290 289 289 287 287 287 286 289 289 290 292 292 292 290 289 287 284 284 283 283 282 282 282 281 280 280 279 277 276 274
298 297 296 295 295 294 294 295 295 294 292 291 290 289 289 289 288 286 287 289 288 288 291 291 291 291 289 288 284 284 283 283 283 282 282 281 280 280 278 276 274 273 272
296 295 294 293 293 292 292 293 293 292 290 292 292 291 290 289 288 288 289 288 287 289 290 290 290 289 289 285 284 284 283 283 282 281 280 280 279 277 275 273 272 271 270
296 295 294 293 293 293 292 293 293 293 294 295 294 293 292 291 292 293 293 291 290 291 290 289 289 289 287 284 284 283 283 282 280 280 280 278 276 274 273 272 271 270 269
302 302 301 301 298 296 294 294 292 291 290 292 293 293 292 291 291 290 289 290 290 291 290 288 287 286 284 284 283 283 281 280 280 279 276 275 274 273 272 271 270 269 267
299 300 299 298 296 295 293 292 293 292 291 290 290 291 292 292 292 292 292 291 289 287 287 287 286 285 284 283 282 281 280 280 277 275 274 273 273 272 271 270 269 268 266
296 296 295 295 295 294 294 294 293 293 293 293 293 293 292 290 289 288 288 287 287 287 287 286 285 284 283 282 281 280 279 276 274 274 273 272 272 271 270 269 268 268 267
292 292 292 292 291 291 291 291 290 290 290 290 289 289 289 289 289 288 288 288 286 285 284 283 282 282 281 280 279 277 275 274 274 273 272 271 271 270 269 268 268 267 267
290 290 290 290 289 289 289 289 289 289 289 288 288 288 287 287 286 286 285 284 283 283 282 281 281 280 279 277 275 275 274 274 273 272 271 271 270 269 269 268 268 267 267
289 288 288 288 288 288 288 288 287 287 287 287 286 286 285 284 283 283 282 282 281 281 280 279 279 278 275 275 274 274 273 272 272 271 270 270 269 269 268 267 267 267 267
288 288 287 287 287 287 287 287 287 286 285 285 284 284 283 282 282 281 281 280 280 279 279 278 276 274 274 273 273 273 272 271 270 270 270 269 269 268 267 267 267 267 267
287 287 287 287 287 287 286 286 285 285 284 284 283 283 282 281 281 280 279 279 278 277 276 275 274 273 273 273 272 271 271 270 269 269 269 268 268 267 267 267 267 267 267
286 286 286 285 285 285 284 284 283 283 282 282 281 281 280 279 278 278 277 276 275 274 273 273 272 273 272 272 270 269 269 268 268 268 267 267 266 266 267 266 266 266 266
284 284 283 283 282 282 282 281 281 281 280 280 279 278 277 276 275 274 274 273 272 272 272 273 272 271 270 269 269 269 269 269 269 268 268 267 266 266 266 265 265 265 265
281 281 280 280 280 279 279 278 278 277 276 276 275 274 273 273 273 272 272 272 272 272 271 271 270 269 269 269 269 268 268 268 268 268 267 267 267 266 266 266 265 265 265

GFSGL_850_thetae_063.txt.gz
Theta_e
315 314 312 310 310 309 309 309 310 314 313 318 318 319 319 317 317 316 314 310 303 303 303 298 292 292 291 291 290 292 297 292 291 290 288 287 287 286 286 286 286 286 286
315 314 313 311 310 309 308 308 309 311 312 316 315 316 316 316 316 314 311 304 300 301 298 292 292 291 291 290 292 297 292 291 290 288 288 287 287 287 286 286 286 286 286
315 314 313 313 310 310 308 308 309 309 313 315 314 315 315 315 314 312 309 302 297 295 293 292 292 291 290 291 298 294 291 290 290 288 287 287 287 287 287 287 287 286 287
315 315 314 315 312 311 309 308 308 308 313 313 314 314 315 313 312 309 305 295 293 292 292 291 291 290 291 296 297 293 290 290 288 287 287 287 287 287 286 286 287 286 286
314 315 315 313 311 310 309 308 308 309 310 311 314 314 313 312 310 306 298 293 292 291 291 290 290 290 293 297 295 294 290 289 288 287 287 287 287 286 286 286 285 285 285
312 312 313 311 310 310 308 308 308 308 307 310 313 313 311 311 308 303 296 292 291 291 290 289 289 292 294 296 296 295 289 287 287 287 287 287 286 286 285 285 284 284 283
313 312 312 310 309 309 308 307 307 307 306 309 311 311 310 309 307 302 295 291 290 290 290 289 289 292 295 296 296 293 287 287 288 287 287 286 285 285 284 284 283 282 282
312 311 310 309 308 307 307 306 306 307 306 308 310 310 308 307 305 298 292 290 289 289 289 289 289 292 295 295 294 289 286 286 288 287 286 285 285 284 284 283 283 282 282
312 311 310 308 306 305 305 305 305 305 306 308 309 308 308 306 303 297 292 290 288 288 288 288 289 291 293 294 293 291 287 290 288 287 285 284 284 284 283 282 282 281 281
311 309 308 306 304 303 302 302 302 303 304 306 306 304 303 302 297 292 290 289 288 287 287 287 288 290 292 293 292 290 290 290 289 287 284 284 284 283 283 282 281 280 279
308 306 304 302 301 299 299 298 299 300 302 302 301 299 298 294 290 287 288 288 288 288 287 288 288 290 291 292 291 290 290 289 289 285 284 284 284 284 283 281 280 279 278
305 303 302 299 298 297 296 296 296 297 297 297 296 295 292 290 289 288 288 288 288 288 289 288 290 290 291 291 291 290 289 288 287 284 284 283 282 282 281 281 280 278 276
301 300 298 297 296 295 294 294 294 294 295 295 294 293 292 291 289 288 288 288 288 288 286 289 289 290 290 290 290 289 288 286 284 283 283 282 281 281 280 279 278 275 274
298 297 296 295 294 293 292 292 293 294 294 293 293 292 291 290 289 288 287 288 287 285 287 287 287 289 288 289 289 289 287 284 283 283 283 282 281 280 280 277 275 274 273
295 294 293 293 293 292 291 292 292 292 294 294 293 292 292 292 291 289 288 287 287 287 287 288 288 288 288 288 288 288 286 284 283 282 282 281 280 280 276 275 274 273 272
298 297 297 297 296 296 296 294 293 292 292 292 292 292 292 291 291 290 289 289 287 287 287 288 288 288 288 287 286 286 284 283 283 282 280 280 279 276 275 274 273 272 272
300 300 298 296 296 295 295 294 294 292 291 291 291 291 291 291 291 290 290 289 289 288 288 287 287 287 287 287 285 284 283 282 282 280 280 278 276 275 274 273 273 272 271
296 296 296 296 296 295 294 293 292 292 292 292 291 290 290 291 291 291 290 289 288 287 287 288 287 286 285 284 283 282 282 281 280 280 278 275 275 274 273 273 272 271 270
295 294 294 293 293 293 293 292 291 291 291 292 291 291 291 290 290 288 288 287 287 287 286 286 285 284 283 282 282 281 281 280 279 277 275 274 274 273 272 271 270 269 269
293 292 291 291 290 290 290 290 290 289 289 288 288 288 288 287 287 287 287 286 286 285 284 284 283 282 282 281 281 280 279 278 276 274 274 273 272 272 271 270 269 268 268
289 289 289 288 288 288 288 288 288 288 287 287 287 287 287 286 286 285 284 284 283 283 283 282 282 281 280 280 279 278 276 275 274 274 274 272 271 271 270 269 268 268 268
288 287 287 287 287 287 287 287 286 286 286 286 286 285 285 285 284 283 283 282 282 282 281 281 280 280 279 278 276 275 274 273 273 273 272 271 270 270 269 269 268 268 267
287 287 287 286 286 286 286 286 286 285 285 284 284 283 283 282 282 281 281 280 280 279 279 278 278 277 276 275 274 273 273 273 272 272 270 269 269 269 268 268 268 267 267
285 285 285 285 285 285 285 284 284 283 283 282 282 282 281 281 280 280 279 279 278 277 276 275 275 274 273 273 273 273 273 272 270 269 269 268 268 267 267 267 267 266 266
283 283 283 283 283 282 282 282 281 281 280 280 279 278 278 278 277 276 276 275 275 274 273 273 273 272 272 273 272 272 270 269 269 268 268 268 267 267 266 266 265 265 265
281 281 281 281 280 280 279 279 278 278 277 277 276 276 275 274 274 273 273 273 273 272 272 272 272 272 271 271 270 269 269 268 268 268 268 268 267 267 267 266 266 265 265

GFSGL_850_thetae_069.txt.gz
Theta_e
314 314 314 314 314 313 313 312 312 312 312 311 311 311 311 310 311 317 318 318 315 318 318 316 317 316 313 310 305 299 299 294 292 292 291 291 290 291 288 287 287 287 287
315 314 314 314 314 314 315 314 313 312 312 311 311 311 310 310 310 314 316 316 317 318 317 316 315 314 312 307 304 302 294 294 292 292 291 293 292 290 288 287 287 287 287
314 314 313 313 314 315 315 314 313 313 312 311 310 310 309 309 309 312 315 315 316 317 316 315 314 312 310 306 302 298 294 292 290 295 297 295 291 288 287 287 287 287 287
313 313 313 313 314 314 313 313 313 312 311 311 310 309 308 308 309 312 313 315 314 314 315 314 311 311 306 303 300 294 292 292 293 297 294 292 290 287 287 288 288 286 286
313 313 312 312 312 312 311 311 311 310 309 309 308 307 307 307 308 312 313 314 314 314 314 311 310 306 302 300 295 292 292 293 296 296 292 292 289 287 288 288 287 286 286
313 313 312 312 311 310 310 310 309 309 309 308 307 307 306 306 307 310 311 312 312 313 312 310 306 301 300 298 291 291 291 294 297 295 293 291 289 289 288 287 286 286 286
312 312 311 311 312 311 310 309 308 308 307 307 306 305 305 305 306 308 309 311 310 310 309 307 303 299 299 294 289 290 296 296 294 295 294 293 291 288 289 287 286 285 285
311 311 311 311 311 311 311 311 310 308 306 305 304 304 303 303 305 306 307 308 307 305 304 302 298 298 296 289 288 294 295 295 295 294 294 294 288 287 289 287 287 284 284
309 309 309 309 310 309 309 308 307 305 303 303 302 302 302 301 303 304 304 305 302 300 299 296 293 294 289 289 290 293 294 294 294 293 293 292 286 288 288 288 285 284 284
309 309 309 308 307 308 307 306 305 304 302 300 300 299 299 299 301 302 302 301 299 296 293 290 290 289 289 289 291 292 294 293 293 292 292 291 290 288 288 287 284 283 283
306 307 307 307 306 305 304 303 301 300 299 298 298 297 297 298 299 299 297 296 295 293 291 290 288 288 289 289 291 293 293 292 292 291 291 289 288 287 287 285 283 283 283
304 303 303 303 303 302 301 300 299 297 296 296 294 295 296 297 297 297 294 294 292 291 291 289 289 287 287 290 291 292 291 290 291 290 290 289 288 288 287 284 283 283 283
306 302 301 300 298 298 299 298 297 296 293 292 293 294 294 294 293 292 289 290 289 287 287 287 288 287 288 290 291 290 290 290 290 290 289 288 288 286 284 283 283 283 282
301 300 298 296 296 295 294 294 295 293 292 293 293 293 292 291 290 289 287 287 286 286 286 287 287 286 287 287 288 289 289 289 289 289 288 287 286 285 284 283 282 281 280
298 296 295 294 294 293 293 292 291 291 291 292 292 292 291 291 290 288 287 286 286 286 286 287 286 286 286 287 288 288 288 288 288 288 287 286 285 284 283 281 280 280 280
293 293 294 291 291 292 291 291 290 290 291 291 292 291 291 290 290 289 287 286 286 287 287 287 287 287 287 287 287 288 288 287 287 287 286 285 284 283 282 281 280 280 279
291 291 291 292 291 292 291 291 292 290 289 290 291 291 291 291 291 289 287 286 287 287 287 287 287 287 287 287 286 286 287 287 286 285 285 283 282 281 281 280 280 279 277
292 291 292 291 291 291 291 290 290 291 291 291 291 291 291 291 290 289 288 287 287 287 287 288 288 287 287 286 286 286 286 286 285 284 283 283 282 281 280 279 279 277 274
290 291 291 291 291 290 289 289 289 289 289 290 289 289 289 290 290 289 289 288 288 288 287 287 286 286 286 286 285 285 284 284 283 282 282 281 280 279 279 278 276 274 273
290 289 289 290 291 292 291 290 289 289 290 290 289 288 289 289 289 288 288 287 286 286 286 285 285 285 284 284 284 283 283 282 282 281 280 280 279 278 277 274 273 273 272
289 290 289 290 290 290 289 288 288 288 287 286 286 286 286 286 286 286 286 286 285 285 285 284 284 284 283 282 282 281 281 280 280 279 278 277 276 276 273 272 272 272 271
289 289 289 288 288 287 287 287 287 286 286 285 285 285 285 285 284 284 284 283 283 283 282 282 282 281 281 280 280 279 279 278 277 276 275 274 273 272 272 271 272 271 270
288 288 287 286 285 285 285 285 285 284 284 284 283 283 283 283 283 282 282 281 281 281 281 280 280 279 279 278 278 277 277 276 275 274 273 272 271 271 271 271 270 269 269
286 285 285 284 284 283 283 283 283 283 282 282 282 281 281 281 281 280 280 280 279 279 279 278 278 277 277 276 275 275 274 273 273 272 271 271 271 271 271 269 268 268 267
282 282 282 282 282 282 282 281 281 280 280 279 279 279 278 278 277 277 276 276 276 276 275 275 274 274 273 273 272 272 271 271 271 271 271 271 270 269 268 267 267 267 266
280 280 281 280 279 279 278 277 277 277 276 276 276 276 275 275 275 275 274 274 274 273 273 273 272 272 272 271 271 271 270 270 270 269 269 268 268 267 267 266 266 266 266

GFSGL_850_thetae_072.txt.gz
Theta_e
314 314 314 314 314 313 314 314 314 313 313 313 312 312 311 311 311 312 312 312 311 311 314 316 318 318 317 316 314 311 308 305 297 296 296 294 298 291 288 287 287 286 287
315 315 314 314 313 313 314 314 313 313 313 313 312 312 311 311 311 311 311 310 309 308 312 314 315 315 316 314 312 311 308 303 297 294 295 295 292 290 288 288 287 286 287
314 314 314 313 313 313 313 313 313 312 312 312 311 311 310 310 310 310 310 309 308 310 313 314 314 314 314 314 314 310 306 301 296 295 293 295 293 289 289 287 286 287 287
313 313 313 313 312 312 312 312 312 311 311 311 311 310 310 310 310 309 309 309 308 310 311 312 312 314 313 313 312 309 304 299 295 293 293 293 289 291 288 288 288 288 287
313 313 313 312 312 311 311 310 310 311 310 309 309 309 309 309 308 308 307 307 307 310 310 311 312 312 311 310 309 306 301 297 295 293 292 292 295 291 289 290 288 286 288
312 312 312 312 312 312 311 310 309 309 309 308 308 308 308 307 307 307 306 305 305 308 308 309 311 308 309 308 305 303 300 299 294 292 292 294 294 291 289 288 287 288 286
311 311 310 310 311 311 311 311 311 310 309 308 307 306 306 306 305 305 304 304 304 306 306 307 309 308 306 303 300 298 297 295 293 291 293 294 292 294 290 288 289 289 287
309 309 309 308 309 309 309 309 310 310 309 309 308 306 305 304 303 303 303 303 304 305 305 306 305 304 302 300 296 296 294 292 291 291 293 294 293 290 291 290 289 288 286
308 308 308 308 308 308 308 307 307 308 308 308 306 304 302 302 301 301 301 301 302 303 303 303 302 300 298 295 295 294 290 289 290 292 293 293 293 292 291 288 288 288 287
307 307 308 307 307 307 306 305 304 304 304 305 304 302 301 300 299 298 299 300 300 301 301 300 298 296 293 294 293 292 288 291 292 293 292 291 292 291 290 288 287 287 287
306 307 306 306 306 307 306 305 304 302 300 300 299 299 298 297 297 297 298 297 297 298 297 297 294 293 291 292 291 290 290 292 292 292 291 291 291 290 289 288 287 287 286
304 305 306 304 304 305 304 303 303 302 300 298 296 294 294 294 295 296 297 294 295 293 293 292 291 290 290 290 289 288 290 292 292 290 290 290 290 290 289 288 286 286 284
302 302 302 302 301 301 300 298 297 298 299 295 293 293 293 294 294 295 293 289 290 290 289 288 288 288 288 287 288 289 290 291 290 290 290 290 290 289 288 286 285 284 283
300 300 300 300 298 297 296 296 295 294 292 291 292 293 293 293 293 291 289 288 288 287 287 286 287 287 287 287 288 289 289 290 289 290 289 289 288 288 287 286 285 284 282
298 299 299 296 295 294 294 293 293 292 291 291 291 291 292 291 290 289 288 288 287 286 286 286 286 286 287 287 288 288 288 289 289 289 288 288 287 287 286 285 284 282 281
297 297 297 294 293 292 291 291 291 291 290 290 291 291 290 289 290 288 287 287 286 286 286 286 286 287 288 287 288 289 289 288 288 288 287 287 286 286 285 284 283 282 281
295 295 293 293 292 290 290 289 290 290 289 289 289 290 290 290 291 289 286 287 287 286 286 287 287 287 287 287 287 287 287 288 287 287 286 286 285 285 284 283 282 281 280
292 292 291 291 290 290 289 289 289 289 288 289 289 288 289 289 289 287 286 286 286 286 287 287 287 287 287 287 287 287 286 286 286 286 285 285 284 283 282 282 281 280 279
290 289 289 288 288 288 288 287 287 288 288 288 288 288 288 288 288 287 287 287 287 287 287 287 286 286 286 286 286 285 285 285 285 284 283 283 282 281 281 280 279 278 277
287 287 288 288 287 287 287 287 287 287 288 288 288 288 288 288 287 287 287 286 286 286 286 286 286 286 285 285 285 284 284 284 283 283 282 281 280 280 279 278 278 277 276
286 287 288 288 287 286 286 287 287 288 287 287 287 287 286 286 287 286 286 286 286 285 285 284 284 284 284 283 283 283 282 282 281 280 280 279 279 278 277 276 276 275 273
286 287 287 287 287 287 288 287 287 286 286 286 285 285 285 285 284 284 284 284 283 283 282 282 282 282 281 281 281 281 280 280 280 279 278 278 277 276 275 274 273 272 271
285 286 287 286 286 286 286 286 286 285 285 285 284 284 283 283 283 283 283 282 282 282 281 281 281 280 280 280 279 279 278 278 277 277 277 276 275 274 273 272 271 270 271
284 284 285 285 285 285 285 284 284 283 283 283 282 282 281 281 281 280 280 280 279 279 279 279 278 278 277 277 276 276 275 275 274 274 273 273 272 271 271 270 271 270 269
281 282 283 283 283 282 282 282 281 281 280 280 279 278 278 277 277 277 277 277 276 276 276 275 275 275 274 274 274 274 273 273 272 272 271 271 270 270 270 270 269 269 268
279 280 280 280 280 279 278 278 277 277 277 276 276 276 275 275 275 275 275 274 274 273 273 272 272 272 272 271 271 271 271 271 271 271 271 270 270 269 269 268 267 267 266

GFSGL_850_thetae_075.txt.gz
Theta_e
313 313 314 314 313 313 313 313 313 313 313 313 312 312 312 312 312 312 312 312 312 312 310 311 311 311 312 312 311 313 312 310 305 304 305 304 302 298 295 290 288 287 286
313 313 313 314 313 313 313 312 312 312 312 312 312 312 311 311 311 311 311 311 311 311 310 310 310 310 309 309 310 312 311 309 308 303 303 301 297 292 294 294 295 290 285
313 313 313 313 313 312 312 311 311 311 311 311 311 311 311 311 310 310 310 310 310 311 310 309 309 308 307 308 309 310 309 310 306 301 301 297 296 296 294 294 292 287 285
312 312 312 312 312 313 312 312 312 311 311 310 310 310 310 309 309 309 309 309 309 310 309 308 308 307 307 309 308 308 308 308 304 300 299 297 295 295 295 292 288 286 286
310 310 311 311 311 311 311 312 311 311 310 310 310 310 309 309 308 308 308 308 308 308 308 308 306 306 308 308 307 306 306 304 302 299 297 295 295 294 294 291 287 287 287
309 310 310 310 309 309 309 309 310 311 311 310 309 309 308 308 308 307 307 307 307 306 305 305 305 305 307 307 307 306 305 303 302 300 298 295 294 294 293 289 288 287 286
309 309 308 308 309 309 309 308 308 308 309 309 309 308 308 306 305 305 305 305 305 305 304 303 303 304 305 305 305 303 302 299 298 298 299 296 294 293 291 291 289 290 291
305 306 307 307 307 307 307 308 307 307 307 307 307 307 307 307 305 303 303 303 303 303 302 302 302 303 304 304 302 300 299 297 295 295 296 295 294 294 294 294 293 291 289
304 305 305 306 307 307 307 307 307 307 306 305 305 305 305 305 303 302 301 301 300 300 300 300 301 300 301 301 299 298 296 294 293 292 293 293 293 293 293 292 290 288 287
301 301 303 305 305 306 306 307 305 305 304 303 303 302 302 303 302 301 299 298 298 298 298 299 299 299 299 298 296 294 293 293 292 292 292 292 291 292 292 291 291 288 287
299 300 301 303 304 304 304 304 304 304 302 300 300 299 299 298 298 297 297 296 296 296 297 297 296 295 295 293 291 291 292 292 291 291 291 290 291 291 290 289 288 287 287
297 299 299 301 302 302 302 303 303 302 301 299 297 297 296 295 294 293 294 295 295 295 295 293 293 291 290 290 288 289 290 291 290 290 289 289 290 290 289 288 287 287 286
297 298 299 299 300 301 301 301 301 298 297 297 296 295 293 293 293 294 294 295 293 292 290 289 289 289 288 288 288 289 289 289 289 289 289 290 290 289 288 286 286 286 285
296 297 298 298 298 298 298 296 297 297 296 295 293 293 293 292 293 293 292 290 289 289 288 288 287 287 287 287 287 288 288 289 289 290 290 289 288 288 288 287 287 286 285
295 296 296 296 296 296 295 294 294 292 292 291 292 290 291 291 290 290 289 288 288 288 287 286 286 286 286 287 287 287 288 288 289 289 288 288 288 288 287 287 286 285 285
294 294 294 294 295 294 293 292 291 289 289 289 289 289 289 289 288 287 287 287 287 287 286 286 286 286 286 287 287 287 288 288 288 288 288 288 288 287 287 286 285 285 284
292 292 291 291 292 292 291 289 289 288 288 288 288 289 289 290 290 287 286 286 286 286 286 286 286 286 287 287 287 287 288 288 287 287 287 287 287 286 286 285 284 284 283
290 290 290 290 290 289 289 288 287 287 287 288 288 288 289 289 289 287 287 286 286 286 286 286 287 287 287 287 287 287 287 287 287 287 286 286 286 285 285 284 283 283 282
288 288 288 288 287 288 287 287 287 287 287 287 287 287 288 288 288 287 287 287 286 286 286 286 286 286 286 286 286 286 286 285 285 285 285 284 284 283 282 282 281 280 280
285 286 286 286 286 287 287 287 286 287 287 287 287 288 287 287 287 287 287 287 286 286 286 286 286 286 285 285 285 285 285 284 284 284 283 282 282 281 280 280 279 278 278
283 284 284 285 286 286 287 286 286 286 286 287 287 287 287 287 287 287 287 286 286 286 286 285 285 285 284 284 284 284 283 283 282 282 282 281 281 280 279 278 277 277 276
282 283 283 284 285 286 286 286 286 286 286 286 286 285 285 285 284 285 285 285 284 284 284 283 283 282 282 282 282 281 281 281 281 280 280 279 279 278 277 276 276 275 274
281 282 283 284 285 285 285 285 285 284 284 284 284 284 283 283 283 283 283 283 283 282 282 282 281 281 281 280 280 280 279 279 279 278 278 277 276 276 275 274 273 272 271
281 281 282 282 282 283 283 283 283 283 283 282 282 282 282 281 281 281 280 280 279 279 278 278 277 277 277 276 276 276 275 275 275 274 274 273 273 272 272 271 271 270 270
280 279 280 280 280 281 281 281 281 281 281 280 279 279 278 277 277 277 277 276 276 276 275 275 274 274 274 273 273 273 273 273 273 272 272 272 271 271 270 270 270 270 269
278 278 278 278 279 279 279 278 278 277 277 276 276 276 276 276 275 275 274 274 273 272 272 272 272 272 272 272 271 271 271 271 270 270 270 270 270 270 269 269 269 268 268

GFSGL_850_thetae_078.txt.gz
Theta_e
313 313 313 313 313 313 312 312 312 311 311 311 311 311 311 311 311 311 312 312 312 312 313 312 312 311 310 310 309 310 310 309 308 308 307 305 305 305 305 304 302 296 292
311 312 312 312 313 313 313 312 312 311 311 311 311 311 311 310 310 310 310 310 311 311 311 311 311 310 309 309 309 310 308 308 307 307 306 304 304 303 302 302 300 295 293
307 307 307 308 308 310 311 312 312 312 312 312 311 311 310 310 309 309 309 309 309 309 310 309 309 309 309 308 308 307 305 305 305 305 304 303 302 300 299 298 295 294 291
306 306 307 307 308 309 310 310 310 311 311 311 311 311 311 310 310 309 308 308 308 308 308 308 308 308 308 306 306 305 305 306 305 304 303 301 300 299 297 296 292 291 290
305 305 306 307 308 308 308 308 309 309 309 309 309 309 309 309 309 309 309 308 307 307 307 307 307 306 306 305 305 304 305 304 303 303 301 300 298 297 296 294 291 291 289
303 303 304 304 305 305 306 307 307 307 308 308 308 308 308 308 307 307 307 307 307 306 306 305 305 305 303 303 303 303 303 302 301 301 300 298 298 297 295 293 292 290 288
301 302 303 303 303 304 304 305 305 306 307 307 307 307 307 306 306 305 305 305 306 305 305 303 303 303 303 302 302 302 302 302 301 299 298 297 295 296 295 293 293 292 291
300 301 301 301 301 301 302 302 303 305 305 306 306 306 306 306 304 303 302 302 303 303 302 301 301 301 300 300 301 301 301 300 299 297 295 294 294 295 294 295 294 291 288
297 298 298 298 299 299 299 300 301 304 305 305 304 304 304 303 302 302 301 301 300 299 299 299 298 299 299 299 299 300 299 297 297 295 293 292 293 292 293 293 290 289 287
294 295 296 296 296 298 299 299 300 302 303 303 303 301 301 301 299 299 299 297 296 296 296 296 297 297 297 298 297 295 294 295 294 293 291 291 291 292 293 293 293 291 289
293 293 295 296 296 296 298 299 300 301 301 302 301 300 299 298 298 297 296 295 295 294 294 294 295 295 294 294 293 291 292 290 290 290 290 289 289 290 291 290 290 290 290
292 292 293 294 296 296 297 298 298 298 298 298 298 298 297 296 296 295 293 293 293 294 294 293 291 292 291 290 290 288 288 288 288 289 289 289 290 290 290 289 289 289 288
291 291 292 293 294 296 296 296 296 296 296 296 296 296 296 294 294 293 293 293 294 293 290 289 289 289 289 288 288 288 287 287 287 288 288 289 290 290 289 289 288 287 286
291 291 292 292 293 294 294 294 295 295 295 295 294 293 292 292 292 292 292 291 290 289 288 288 288 287 287 287 287 287 286 287 287 288 289 289 289 289 288 288 287 287 285
290 290 291 291 292 293 293 292 293 293 292 293 291 290 290 290 290 289 289 288 287 287 287 286 286 286 286 287 287 287 287 287 288 288 288 289 288 288 287 287 286 285 284
289 289 289 290 291 291 291 291 291 290 290 288 288 287 288 289 289 287 287 287 287 286 286 286 286 286 286 287 287 287 287 287 288 289 288 288 287 286 286 286 286 285 284
287 288 288 288 288 289 289 289 289 288 287 287 287 288 288 289 288 287 286 286 287 287 287 286 286 286 286 287 287 287 287 287 287 287 287 287 286 286 285 285 285 284 284
286 286 286 286 287 287 288 287 287 286 286 286 287 287 288 288 287 287 287 287 287 287 287 286 286 286 286 286 286 287 287 287 287 286 286 286 285 285 285 285 284 284 283
284 284 284 285 285 286 286 286 286 286 286 286 287 287 287 287 287 287 287 287 286 286 286 286 286 286 286 286 286 286 286 286 286 286 285 285 285 284 284 283 283 282 281
282 282 282 283 284 285 285 285 286 285 286 286 286 287 287 287 287 287 287 286 286 286 286 286 286 286 286 285 285 285 285 285 285 285 284 284 283 283 282 281 281 280 280
280 281 281 282 283 283 284 285 285 285 285 285 286 286 286 286 287 286 286 286 285 285 285 285 284 284 284 284 283 283 283 282 282 282 282 281 281 281 280 279 279 278 277
279 280 281 282 282 283 283 284 284 284 284 284 284 285 285 285 285 285 284 284 284 283 282 282 282 282 282 282 281 281 281 281 280 280 279 279 278 278 277 277 276 276 275
279 279 280 281 281 282 282 282 283 283 282 282 282 283 283 283 283 283 282 282 282 281 281 280 280 279 279 278 278 278 277 277 277 276 276 276 275 275 275 275 274 274 273
277 278 279 280 281 281 281 281 281 281 281 281 281 281 281 281 281 280 279 278 278 277 277 277 277 277 276 276 275 275 274 274 274 274 273 273 273 273 272 272 271 271 270
276 277 278 278 279 280 279 279 279 279 279 279 279 278 277 277 277 276 276 276 276 275 275 274 274 273 273 273 273 272 272 271 271 271 271 271 271 271 271 271 270 270 270
276 276 276 276 277 277 277 277 277 277 276 275 275 275 275 275 274 274 274 274 273 273 273 273 273 273 272 272 272 272 271 271 271 271 270 270 270 269 269 269 269 269 268

GFSGL_850_thetae_084.txt.gz
Theta_e
307 306 305 305 305 305 305 306 306 307 308 308 309 309 309 309 310 310 310 310 309 309 309 309 309 309 309 311 309 310 310 309 309 311 309 308 308 308 308 307 306 306 305
305 304 304 303 303 303 303 303 303 303 304 304 306 307 307 308 308 308 308 308 308 308 308 308 308 307 307 307 311 308 308 308 308 307 307 307 307 307 307 306 305 304 304
302 302 301 301 301 301 300 300 300 300 300 300 301 302 303 304 305 306 307 307 306 306 306 306 306 306 306 305 305 305 306 306 306 306 306 306 306 306 306 305 304 304 303
300 300 300 299 299 299 299 298 298 298 298 298 299 299 299 300 301 303 305 305 306 306 306 306 305 304 304 304 303 303 304 303 304 304 305 305 305 304 304 303 303 303 302
298 298 297 297 297 297 297 297 297 297 297 297 298 298 299 299 299 301 303 304 305 305 305 305 304 303 303 302 300 301 302 302 302 302 302 302 302 302 302 302 301 300 299
298 297 296 296 295 295 295 295 295 295 295 295 296 296 296 296 297 299 300 301 302 303 303 303 303 303 302 301 300 300 301 301 300 300 300 300 300 300 300 299 299 297 295
296 296 295 295 294 294 293 293 293 293 293 293 293 294 295 296 296 297 297 298 299 300 300 301 301 300 299 298 296 297 298 299 299 299 298 299 298 298 297 297 297 296 295
295 294 294 293 292 292 292 292 292 292 292 292 292 292 293 294 296 296 296 297 297 298 298 299 298 299 298 295 294 295 296 297 297 298 298 298 297 296 295 295 295 294 291
293 292 291 291 291 291 291 291 291 291 291 291 292 292 292 292 294 295 296 296 296 297 297 297 297 296 295 294 293 294 294 294 295 296 295 295 295 294 293 293 292 291 288
290 290 290 291 291 290 290 290 290 290 291 291 292 293 293 293 293 293 295 295 296 296 296 295 294 293 293 293 293 293 293 293 292 292 292 292 292 292 291 291 291 291 287
290 290 290 290 291 291 291 291 291 291 290 290 291 292 293 293 293 293 294 294 294 294 294 293 292 292 292 291 290 290 290 289 289 289 289 289 290 290 289 289 288 288 287
290 289 289 289 289 289 289 290 290 290 290 290 290 291 291 292 292 293 293 292 291 291 291 291 290 289 289 289 289 289 288 288 288 288 288 287 288 287 287 286 286 285 285
289 289 289 289 289 289 289 289 289 289 289 289 289 290 290 291 291 291 290 290 289 289 289 288 288 288 288 288 288 287 287 287 287 287 286 287 287 287 286 286 285 285 286
289 289 288 288 289 289 289 289 289 288 288 288 288 289 289 289 289 288 288 288 287 287 287 287 287 287 287 287 287 287 287 286 286 286 286 286 287 286 286 286 286 286 286
289 289 288 288 288 289 289 288 288 288 287 287 287 286 286 286 287 287 287 286 286 286 286 286 286 287 287 287 287 287 287 286 286 286 286 287 287 287 287 286 286 286 286
289 289 288 288 287 287 287 288 287 287 286 286 286 285 286 286 287 287 286 286 286 286 286 286 286 286 286 287 287 287 287 286 286 287 287 287 287 287 287 287 287 286 285
287 287 287 287 286 285 285 285 286 287 286 285 285 285 285 285 287 287 286 286 285 286 286 286 286 286 286 286 286 287 287 287 287 287 287 287 287 286 286 286 286 285 285
287 286 285 285 284 283 283 283 283 283 284 285 285 284 284 285 286 286 286 286 286 286 286 286 286 286 286 286 286 286 286 286 286 287 286 286 286 286 285 285 284 284 284
285 285 284 284 283 282 282 282 283 283 283 283 284 284 284 284 285 286 286 286 286 286 285 285 285 285 285 285 285 285 285 285 285 285 285 285 285 284 284 283 283 283 282
284 283 282 282 282 281 282 282 282 282 282 282 283 283 284 284 285 286 286 286 285 285 284 284 284 284 284 284 284 283 283 283 283 282 282 282 282 282 282 281 281 281 280
282 282 281 281 281 280 281 281 281 281 281 282 282 283 283 283 284 284 284 284 283 283 283 283 283 283 282 282 282 281 281 280 280 279 279 279 279 279 279 279 279 278 278
280 280 280 280 280 280 280 280 280 280 280 281 281 281 282 282 282 282 282 282 282 282 282 281 280 279 278 278 278 277 277 277 277 277 276 276 276 276 276 276 276 276 276
279 279 279 279 279 279 279 279 279 279 279 280 280 280 280 280 280 280 280 280 280 278 277 277 277 277 276 276 275 275 274 274 274 274 274 274 273 273 273 273 273 273 273
278 278 278 278 278 277 277 278 278 278 278 278 278 278 279 279 279 278 277 276 276 276 275 275 274 274 274 274 274 273 273 273 273 273 273 273 273 272 272 272 272 271 271
277 276 276 276 276 276 276 276 276 276 276 277 277 277 277 276 275 275 274 274 274 274 273 273 273 273 273 273 273 273 272 272 272 272 272 272 272 272 272 271 271 271 270
275 275 275 275 275 275 275 275 275 275 276 276 276 275 274 275 274 273 273 272 272 272 272 272 272 272 272 272 272 272 272 272 272 271 271 271 271 271 271 270 270 270 269

GFSGL_850_thetae_087.txt.gz
Theta_e
306 305 305 304 304 303 303 302 302 302 302 302 301 301 301 301 302 303 304 305 306 306 307 307 307 307 306 306 306 309 309 309 308 309 308 308 308 308 307 307 306 305 306
303 303 302 301 301 301 300 300 300 300 299 299 299 299 299 299 299 299 300 300 301 302 304 305 305 305 305 305 304 304 305 308 307 306 305 306 306 306 306 305 305 306 305
301 301 300 300 300 299 299 299 298 298 297 297 297 297 297 297 297 298 298 299 299 300 301 303 304 304 304 304 302 302 302 301 303 304 304 304 304 304 304 304 304 304 304
300 300 299 299 298 298 297 297 297 296 295 295 295 294 295 295 295 296 296 296 297 297 298 299 300 301 302 301 301 300 299 298 299 300 301 301 302 302 302 302 303 303 303
299 299 298 297 297 296 296 296 295 294 294 293 293 293 293 293 293 293 294 295 295 296 296 296 297 298 299 299 299 299 297 297 298 298 298 299 300 300 300 300 300 300 300
298 297 296 296 296 295 295 294 293 293 293 293 293 292 292 292 292 292 292 292 293 295 295 296 296 297 297 298 298 297 296 295 296 296 297 297 298 297 298 298 298 297 296
296 295 295 295 294 293 292 292 292 292 292 292 292 292 292 291 292 292 292 292 292 292 293 295 296 296 296 296 297 297 296 295 294 294 295 296 295 296 295 294 295 295 295
295 294 293 293 292 292 292 292 292 292 292 292 292 291 291 291 291 292 292 293 293 293 293 293 295 295 295 294 294 294 294 293 293 293 293 294 294 294 293 293 293 292 293
293 292 291 291 291 291 291 290 290 290 291 291 291 291 291 291 290 291 292 292 292 293 293 294 294 294 293 292 292 292 293 293 292 291 291 291 291 291 291 291 291 291 290
291 291 291 290 290 290 290 290 289 289 290 290 291 291 291 290 290 290 291 291 292 293 293 293 292 290 290 291 290 290 289 290 289 289 289 289 289 289 290 290 290 289 289
290 290 289 289 289 289 289 289 289 289 290 290 290 291 291 291 290 290 290 291 291 292 292 291 289 288 289 288 288 288 287 287 287 288 288 288 288 287 288 288 288 287 287
289 289 289 289 289 289 289 288 288 289 289 290 290 290 291 290 290 290 290 288 288 288 289 288 287 288 287 287 287 287 287 287 287 287 287 287 286 286 286 286 286 286 286
289 289 288 289 289 289 289 289 288 289 289 289 288 289 289 288 288 288 287 287 287 286 286 287 287 287 287 287 287 286 286 286 286 286 286 286 286 286 286 285 285 285 285
288 288 288 288 289 290 289 289 288 288 288 287 287 287 287 286 286 285 285 285 286 285 286 287 286 287 287 287 287 287 287 286 286 286 286 286 286 286 286 286 285 285 286
288 288 288 288 288 289 289 288 288 287 286 286 287 286 284 284 284 285 285 286 286 286 286 286 286 286 286 286 287 287 286 286 286 286 286 286 286 286 286 286 286 285 285
288 288 288 288 288 288 288 289 287 286 285 285 285 284 283 284 285 285 286 286 286 286 286 286 286 286 286 286 286 287 287 287 287 287 287 287 287 286 286 286 286 285 285
288 287 287 288 287 287 286 285 286 286 285 285 284 284 284 285 285 285 286 286 286 286 286 286 286 286 286 286 286 286 286 286 287 287 287 286 286 286 286 285 285 285 284
287 287 287 287 286 285 284 284 284 284 284 284 285 284 284 284 285 285 285 286 286 286 286 286 286 285 285 285 285 286 286 286 286 286 286 286 285 285 285 284 284 283 283
286 286 286 285 285 284 283 283 283 283 282 282 282 283 283 283 284 284 285 286 286 286 285 285 285 285 285 284 284 285 284 284 284 284 284 284 284 283 283 283 282 282 282
285 285 285 284 284 283 282 282 282 282 281 281 282 282 283 283 283 284 285 285 285 284 284 284 284 284 283 283 283 282 282 282 281 281 281 281 281 280 280 280 280 280 280
284 283 283 282 282 282 281 281 281 281 281 281 281 281 282 282 283 283 283 283 283 283 283 283 282 282 282 281 280 279 278 278 278 278 277 277 277 277 277 277 277 277 277
282 282 281 281 281 281 281 281 280 280 280 280 280 281 281 281 281 281 282 282 282 281 281 281 281 279 278 277 277 277 276 275 275 275 274 274 274 274 274 274 274 274 274
280 280 280 279 279 280 280 280 279 279 279 279 279 279 280 279 280 280 280 280 280 280 278 277 277 276 276 275 275 274 274 274 274 274 274 273 273 273 273 273 273 273 273
279 279 278 277 278 278 278 278 278 278 278 278 278 278 278 278 278 278 278 277 277 276 276 275 275 274 274 274 274 273 273 273 273 273 273 273 273 272 272 272 272 272 272
277 277 277 276 276 277 277 277 276 276 277 277 277 277 277 277 277 276 275 274 275 275 274 274 273 273 273 273 273 272 272 272 272 272 272 272 272 271 271 271 271 271 271
276 276 276 275 275 275 275 275 275 275 276 276 276 276 276 276 276 276 275 274 273 273 273 273 272 272 272 272 272 272 272 271 271 271 271 271 271 271 270 270 270 270 269

GFSGL_850_thetae_093.txt.gz
Theta_e
306 305 304 303 302 301 300 300 299 299 299 299 298 298 297 296 295 295 295 294 294 294 294 293 293 293 292 292 293 294 294 295 297 295 296 295 296 296 297 299 298 300 299
304 303 302 301 300 299 299 299 299 299 298 298 297 296 295 295 294 294 294 293 293 292 292 292 291 291 292 292 292 292 292 293 293 294 294 295 294 295 294 295 296 296 295
301 301 300 299 298 299 299 298 298 297 297 295 295 295 294 294 293 292 292 292 291 291 291 290 290 291 291 291 291 292 292 292 292 293 293 293 293 294 293 294 294 294 293
299 299 299 298 298 298 298 297 296 295 295 294 294 293 293 292 292 291 291 291 291 291 290 290 290 290 290 290 291 291 291 291 291 290 290 291 291 292 291 292 292 292 292
299 298 298 298 298 297 296 295 295 294 294 293 293 292 292 291 291 290 290 290 290 291 291 291 290 290 290 291 291 291 289 289 289 289 289 289 290 290 290 291 291 290 290
298 298 298 297 297 296 295 294 293 293 292 292 291 291 290 290 290 290 290 290 290 291 291 291 291 291 290 290 290 289 287 287 288 288 288 288 289 288 289 288 288 289 289
298 298 297 297 297 295 293 293 292 292 292 291 290 290 290 289 289 289 289 290 290 290 291 291 290 290 290 289 289 287 287 287 287 287 287 287 287 287 287 287 287 288 287
297 297 297 296 295 293 292 292 292 291 291 290 290 289 289 289 289 290 290 290 290 290 290 290 289 289 288 287 286 286 286 286 286 286 286 286 286 287 287 287 287 287 287
297 297 296 294 293 292 292 291 291 291 290 290 290 289 289 290 290 290 290 290 290 290 289 287 287 287 285 285 286 286 286 286 286 286 286 286 286 286 286 286 286 286 286
297 296 294 292 292 291 291 291 290 290 290 289 290 290 290 290 290 290 290 289 289 288 286 285 286 286 286 285 286 286 286 286 286 285 285 286 286 286 285 285 285 285 285
296 294 292 292 291 291 290 290 289 289 289 290 290 290 290 290 289 289 289 288 287 286 285 286 285 286 286 285 286 286 286 286 286 285 285 286 286 286 285 285 285 285 285
294 293 292 291 290 290 289 289 289 289 289 289 290 290 290 289 289 288 288 286 286 285 286 286 286 285 285 286 285 286 286 286 286 286 286 286 286 286 286 286 285 285 285
293 291 290 290 289 289 289 289 288 288 289 289 290 290 289 289 288 288 287 287 286 285 286 286 285 286 286 286 286 287 286 286 286 286 286 286 286 286 286 286 285 285 285
291 290 290 289 289 289 289 288 288 288 289 289 289 289 289 289 288 287 286 285 285 285 285 285 285 285 286 286 286 286 286 286 286 286 286 286 286 286 285 285 285 285 285
290 289 289 289 289 288 288 288 288 288 288 289 288 288 288 288 287 284 285 285 285 285 285 285 285 285 286 286 286 286 286 286 286 286 286 286 286 285 285 285 285 285 284
289 289 289 289 288 288 288 288 288 288 288 288 287 287 287 286 285 285 285 285 285 285 285 285 285 285 285 286 286 286 286 286 285 285 285 285 285 285 284 284 284 284 284
289 289 288 288 288 287 287 287 287 287 287 287 287 286 286 285 285 285 285 285 285 285 285 285 285 285 285 285 285 285 285 285 285 284 284 284 283 283 282 282 282 282 282
288 288 288 287 287 287 287 287 287 287 287 286 285 285 285 285 284 285 285 285 285 285 285 285 285 284 284 284 284 284 284 283 282 282 281 280 280 280 280 279 279 279 280
288 287 287 287 287 286 286 286 286 287 286 286 285 284 284 283 284 284 284 284 284 284 284 284 284 284 283 283 283 283 282 281 279 279 279 278 278 277 277 277 277 277 277
287 287 287 287 286 286 286 286 286 286 285 284 284 283 283 283 283 282 282 283 282 282 282 282 282 282 282 282 282 280 278 278 277 277 276 276 276 275 275 275 275 275 275
287 287 286 286 286 285 285 285 285 285 284 283 282 282 281 282 282 281 281 281 280 280 279 280 280 280 280 280 279 277 277 276 275 275 275 275 275 274 274 274 274 274 274
287 286 286 285 285 285 285 285 284 284 283 282 281 280 280 280 280 280 280 279 279 279 279 278 278 278 276 276 275 275 275 275 274 274 274 274 274 273 273 273 273 273 273
286 286 285 284 284 284 284 284 283 282 281 280 280 279 279 279 278 278 278 278 278 277 277 277 277 276 275 274 274 274 274 273 273 273 273 273 273 273 273 273 272 272 272
285 285 284 284 283 283 283 282 281 280 280 279 278 278 278 277 277 277 277 277 276 276 277 277 276 276 275 275 273 272 272 272 272 272 272 272 272 272 272 272 271 271 271
284 283 283 282 282 282 281 281 280 279 278 277 277 276 276 276 276 276 276 276 276 276 276 275 275 275 274 273 272 271 271 271 271 271 271 271 271 271 271 271 270 270 270
282 281 281 281 281 280 280 279 278 277 276 276 276 275 275 275 275 275 275 275 275 275 275 275 274 273 273 272 271 271 271 271 271 271 271 271 271 271 270 270 270 270 270

GFSGL_850_thetae_096.txt.gz
Theta_e
314 312 310 307 304 303 301 300 300 299 299 298 298 297 296 295 295 295 294 294 294 293 292 292 292 291 291 290 290 291 291 291 291 291 291 291 291 291 292 292 292 293 292
309 307 305 303 301 300 300 299 299 298 298 297 296 295 295 295 294 294 293 293 292 292 291 291 291 291 290 290 290 290 290 290 291 291 290 291 290 290 290 289 289 290 290
304 303 302 300 299 299 299 298 298 297 296 295 295 295 294 294 293 293 292 291 291 291 291 291 291 291 291 291 290 290 290 289 288 288 288 288 288 288 288 289 289 289 290
302 301 300 299 298 298 298 297 296 295 295 294 294 294 293 293 292 292 291 291 290 290 290 290 291 291 290 290 290 289 288 287 287 287 287 288 288 288 288 288 288 287 288
300 299 299 298 298 297 296 296 295 294 294 294 293 293 292 292 291 291 290 290 290 290 289 290 290 290 290 289 289 288 286 286 287 287 287 287 287 286 286 286 286 287 287
299 298 298 298 297 296 295 294 294 293 293 293 293 292 292 291 291 290 290 290 290 290 289 289 289 289 289 289 287 286 286 286 287 286 286 285 286 286 286 286 287 286 285
298 298 297 297 296 296 294 293 293 293 293 292 292 291 291 290 290 290 290 290 290 290 290 289 289 289 289 289 287 285 286 286 286 286 286 286 286 286 286 286 285 285 285
297 297 297 297 296 294 293 293 293 292 292 292 291 291 290 290 290 290 290 290 290 289 289 289 288 287 287 286 285 285 286 286 286 286 285 285 286 286 286 285 285 285 286
297 297 297 296 295 293 293 292 292 292 292 291 291 290 290 290 290 290 290 290 290 290 290 289 287 287 287 285 285 286 285 286 286 286 285 286 286 285 285 286 286 285 286
297 297 296 295 293 292 292 292 292 291 291 290 290 290 290 290 290 290 290 290 290 289 289 287 287 287 287 285 286 286 286 285 287 287 286 286 286 286 286 286 285 285 285
297 296 295 293 292 292 291 291 291 290 290 289 289 289 290 290 290 290 290 289 288 288 287 287 287 286 285 285 286 285 286 286 287 286 286 286 287 286 286 286 286 285 285
296 295 294 292 291 291 291 291 290 290 290 289 289 289 289 289 289 289 289 288 287 287 287 286 286 285 286 286 286 286 287 287 286 287 287 287 287 286 286 286 285 285 284
296 294 292 291 291 291 290 290 290 289 289 289 289 289 289 289 289 289 288 288 287 287 286 286 286 286 286 286 286 286 287 287 287 287 287 286 286 286 286 285 285 285 285
295 293 291 291 290 290 290 289 289 289 289 289 289 289 289 288 288 288 288 288 287 286 286 286 286 286 286 286 286 286 286 286 287 286 286 286 286 286 285 285 284 284 284
293 292 293 290 290 289 289 288 288 288 288 288 288 288 288 288 287 287 287 287 287 286 286 286 285 285 286 286 286 286 286 286 286 286 286 285 285 285 284 283 283 283 283
293 293 290 290 289 289 288 288 288 288 288 288 288 288 288 287 287 287 286 286 287 286 285 285 285 285 285 285 285 286 286 285 285 285 285 284 283 282 281 281 281 280 281
295 293 289 289 288 288 288 287 287 287 287 287 287 287 287 287 287 286 286 286 286 286 285 285 284 284 284 284 284 284 284 284 284 283 282 281 280 279 279 279 278 278 278
294 289 289 288 288 288 288 288 287 286 286 286 287 287 286 286 286 286 285 285 285 285 285 285 284 283 283 283 283 283 283 283 282 280 279 279 278 277 277 277 276 276 276
290 289 288 288 287 287 287 287 287 286 286 286 286 286 286 285 285 285 285 284 284 284 284 284 283 283 283 283 282 282 281 281 278 277 277 276 276 276 276 275 275 275 275
289 288 288 287 287 287 287 287 286 286 286 285 285 285 285 284 284 284 283 283 283 283 283 283 282 282 281 281 280 280 280 278 276 275 275 275 275 275 275 275 274 274 274
289 288 288 287 287 287 286 286 286 285 285 285 285 284 284 284 283 283 282 282 281 281 281 281 280 280 280 279 279 279 278 276 275 275 275 274 274 274 274 274 274 274 274
289 288 287 287 287 286 286 285 285 285 284 284 284 283 283 282 281 281 281 280 280 280 279 279 279 278 278 278 278 278 277 276 275 274 273 273 273 273 273 273 273 273 273
287 287 286 286 286 286 285 285 284 284 283 283 283 282 282 281 280 280 279 279 279 278 277 277 277 277 277 277 277 277 276 275 274 273 272 272 272 272 272 272 272 272 272
287 286 286 285 285 285 284 284 283 283 282 282 281 280 280 279 279 278 278 277 277 276 276 276 276 276 276 276 275 275 275 273 272 272 272 272 271 271 271 271 271 271 271
288 285 285 285 284 283 282 282 282 281 281 280 280 279 278 278 277 277 277 276 276 276 275 275 275 275 275 275 274 273 272 271 271 271 271 271 271 271 271 271 271 271 270
286 284 284 282 281 281 281 280 280 279 279 278 278 278 277 276 276 276 276 275 275 275 275 275 274 274 274 274 273 272 271 270 270 270 270 271 271 271 270 271 270 270 270

GFSGL_850_thetae_102.txt.gz
Theta_e
311 313 323 327 325 324 322 320 318 314 308 302 300 299 298 296 296 295 295 294 294 294 293 293 292 291 291 290 290 290 290 290 290 291 291 291 291 290 289 289 289 289 288
313 319 324 323 323 322 320 319 311 306 301 299 298 297 296 296 295 295 294 294 293 293 292 292 291 291 290 290 290 290 290 290 289 289 290 290 289 288 288 289 288 288 288
320 319 321 320 320 319 318 310 305 300 299 298 297 296 296 295 295 294 294 293 293 293 292 291 291 290 290 290 290 291 290 289 289 289 289 288 287 288 289 288 289 289 288
317 317 319 319 319 318 309 303 300 299 298 297 296 295 295 294 294 293 293 293 292 292 291 291 290 290 290 291 291 290 290 289 289 288 287 286 287 287 287 288 289 288 288
318 317 317 318 317 308 302 300 299 298 296 295 295 295 294 294 293 293 292 292 292 291 291 291 290 290 290 290 290 289 289 288 286 286 286 287 287 288 287 287 287 288 288
315 316 315 313 306 301 299 298 298 296 295 295 295 294 293 293 293 292 292 291 291 291 291 290 290 290 290 290 290 290 287 286 286 285 286 286 287 287 287 286 287 286 287
311 309 306 303 300 299 298 298 296 295 295 294 294 293 293 293 292 292 291 291 291 291 291 290 290 290 290 289 289 288 286 286 286 286 286 286 287 287 286 286 286 286 286
307 304 302 300 298 298 298 297 295 295 294 294 293 292 292 292 292 291 290 290 290 290 290 290 290 290 289 289 288 286 287 287 287 287 286 286 286 286 286 286 286 286 286
305 303 301 299 298 297 297 296 295 294 293 293 292 292 292 291 291 290 290 290 290 290 290 290 290 289 289 288 287 286 287 287 287 287 287 287 286 286 286 286 286 285 285
305 303 300 298 297 297 296 295 294 293 292 292 291 291 291 291 290 290 290 290 290 289 289 290 289 289 289 288 288 287 287 287 287 287 286 286 286 286 286 286 285 284 284
305 302 299 297 296 296 295 294 293 292 291 291 291 291 292 291 289 289 289 289 289 289 289 289 289 289 289 288 287 287 287 287 287 287 287 287 286 286 286 285 284 283 283
305 302 299 297 296 295 294 293 292 291 290 290 290 295 292 289 289 289 289 289 289 289 289 289 289 289 288 287 287 287 287 287 287 287 286 286 286 286 286 284 283 282 281
304 301 298 296 295 295 294 292 291 290 290 290 296 295 289 289 289 289 289 289 288 288 288 289 289 289 288 287 287 286 286 286 286 286 286 286 286 286 285 283 281 281 280
304 301 297 295 295 294 293 291 290 289 291 296 295 291 288 288 289 288 288 288 288 288 288 288 288 288 288 287 286 286 286 286 286 286 286 285 285 285 283 281 282 281 279
302 300 297 295 294 293 292 290 290 293 296 298 292 288 288 288 288 288 288 287 287 287 287 288 288 288 288 287 286 285 285 285 285 285 285 285 285 283 281 280 280 280 279
301 298 296 294 293 292 291 290 293 296 299 295 288 288 288 288 288 287 287 287 287 287 287 287 287 287 287 286 286 285 285 285 285 285 284 284 283 282 280 279 279 279 278
300 299 296 294 293 292 291 291 297 298 298 290 288 287 287 287 287 287 287 287 287 286 286 286 286 286 286 286 286 285 285 284 284 284 283 283 282 281 279 278 280 280 277
298 297 296 295 294 294 293 295 298 299 294 288 288 287 287 287 287 286 286 286 286 286 286 286 285 285 285 285 285 284 284 284 283 282 282 281 281 279 278 279 280 277 276
297 296 294 293 295 296 295 297 299 294 288 287 287 287 287 287 286 286 286 286 286 285 285 285 285 284 284 284 284 283 283 282 281 281 280 280 279 279 279 279 276 275 275
295 293 292 293 292 291 292 296 297 289 287 287 286 286 286 286 286 286 285 285 285 284 284 284 283 283 283 283 282 282 281 281 280 280 279 279 278 278 278 276 274 274 273
294 292 292 293 292 290 290 298 293 287 287 286 286 285 285 285 285 285 285 284 284 283 283 283 282 282 282 281 281 280 280 279 278 278 278 277 277 277 276 274 273 273 273
292 291 291 291 290 289 289 298 291 285 285 285 285 284 284 284 284 284 283 283 283 283 282 282 281 281 281 280 280 279 279 278 277 276 276 276 275 275 275 272 272 272 271
291 290 290 290 289 288 289 288 287 286 285 284 284 284 283 283 283 283 282 282 282 282 281 281 280 280 279 279 278 278 278 277 276 276 275 275 274 274 273 271 271 271 271
292 290 289 289 288 288 287 286 286 288 286 284 284 283 282 282 282 281 281 281 281 281 280 279 279 278 278 278 277 276 276 276 275 275 274 274 273 273 271 270 270 270 270
290 290 289 289 287 286 285 284 284 285 285 283 282 281 281 281 280 280 280 280 280 279 279 278 277 277 277 276 276 275 275 275 274 274 273 273 273 272 271 270 270 269 270
288 288 287 286 285 284 283 282 282 281 282 282 281 281 279 279 280 280 278 278 278 278 277 276 276 276 276 275 275 274 274 274 274 273 272 272 272 271 270 270 269 269 269

GFSGL_850_thetae_105.txt.gz
Theta_e
311 311 311 314 326 329 329 327 324 322 319 316 315 306 300 298 297 296 296 295 295 294 294 293 293 292 291 291 291 291 291 291 290 291 291 291 290 290 289 289 289 289 288
311 310 310 310 323 327 326 323 322 321 317 316 308 300 298 297 296 296 295 294 294 293 293 293 292 292 291 291 291 291 291 290 290 290 291 291 290 289 289 288 289 288 288
311 311 312 316 323 325 325 322 321 320 316 310 300 298 297 296 295 295 294 294 293 293 293 292 292 291 291 291 291 290 290 290 290 290 291 290 289 289 289 288 288 288 288
312 311 314 315 318 322 322 321 319 318 310 301 298 297 296 295 295 294 293 293 293 292 292 292 292 291 291 291 290 290 290 290 290 290 290 289 288 288 288 288 289 288 287
312 314 316 318 321 321 320 318 318 311 301 298 297 296 295 294 294 293 293 292 292 292 292 291 291 291 290 290 290 290 290 290 290 290 289 288 288 288 287 287 288 287 287
312 315 315 316 319 318 318 317 312 302 298 297 296 295 294 294 293 293 292 292 292 291 291 291 291 291 290 290 290 290 290 290 290 289 288 287 287 287 287 287 287 287 285
314 315 314 315 316 316 315 311 303 298 297 296 295 294 294 293 293 292 291 291 291 291 291 291 291 290 290 290 290 290 290 289 289 288 288 287 287 287 287 287 287 286 284
313 314 314 314 314 314 310 303 298 297 297 295 294 294 293 293 292 292 291 291 290 290 291 290 290 290 290 290 290 290 289 289 289 288 288 287 286 286 287 287 287 285 284
311 313 314 314 313 309 304 299 297 297 295 294 294 293 292 292 292 291 290 290 290 290 290 290 290 290 290 290 290 290 289 289 288 288 287 287 286 286 286 287 286 285 284
309 310 311 310 308 304 300 298 297 296 294 294 293 292 292 291 291 291 290 290 290 290 290 290 289 290 290 289 289 289 289 288 288 287 287 286 286 286 287 286 286 284 283
308 308 308 306 304 300 298 297 296 295 293 293 292 291 291 290 291 291 292 290 289 289 289 289 289 289 289 289 289 288 288 288 287 287 287 287 287 286 286 286 286 283 282
307 307 306 304 302 298 296 296 295 294 293 292 291 290 290 291 294 295 291 289 289 289 289 289 289 289 289 289 288 288 287 287 287 287 287 286 286 286 286 286 285 282 282
306 305 305 303 300 297 296 295 294 293 292 291 290 289 292 296 296 296 289 289 289 289 288 288 288 288 288 288 288 287 287 287 286 286 286 286 286 286 286 285 284 281 281
304 304 304 302 300 297 295 294 294 293 292 290 289 291 298 298 297 292 289 288 288 288 288 288 288 288 288 288 288 287 286 286 286 286 286 286 285 285 285 284 282 281 280
303 302 302 300 298 296 294 294 293 292 291 290 290 297 299 298 296 288 288 288 288 287 287 287 287 287 287 287 287 287 286 286 285 285 285 285 284 284 284 283 281 280 280
301 301 301 300 299 296 294 293 292 290 289 288 295 298 297 297 289 288 288 288 287 287 287 287 287 286 286 286 286 286 286 285 285 285 284 284 284 283 283 282 281 279 280
300 299 299 298 297 295 294 292 291 290 289 292 297 296 297 296 288 287 287 287 287 286 287 287 286 286 286 286 286 285 285 285 285 284 284 283 282 282 282 280 279 279 280
296 296 297 296 296 295 293 291 292 291 292 294 295 296 298 297 288 287 287 286 286 286 286 286 285 285 285 285 285 285 284 284 284 283 283 282 281 281 280 279 279 279 278
299 296 295 295 295 294 291 292 293 293 292 295 295 298 298 293 287 287 286 286 286 286 285 285 285 284 284 284 284 284 283 283 283 282 282 281 280 279 279 278 278 278 276
297 295 294 294 294 293 291 292 292 292 292 294 295 296 292 287 286 287 286 286 285 285 284 284 284 284 283 283 283 283 282 282 281 281 280 279 278 278 278 277 277 276 274
297 295 293 292 293 292 291 292 292 294 294 292 294 291 285 285 285 285 284 284 284 284 283 283 283 283 283 282 282 282 281 281 280 279 279 278 277 277 276 276 275 274 273
295 294 292 291 290 290 290 289 288 289 287 286 290 291 284 284 285 285 284 284 284 283 283 283 282 282 282 281 281 281 280 280 279 278 277 277 276 276 275 275 274 273 272
292 293 293 291 289 288 288 288 287 287 286 285 289 288 284 284 284 284 283 282 282 282 282 282 281 280 280 280 279 279 279 279 277 277 277 276 275 275 274 274 273 272 271
289 290 291 291 290 289 288 287 286 286 286 285 285 284 287 286 283 282 282 281 281 281 281 281 280 280 279 278 278 278 278 277 276 275 275 275 275 274 274 273 272 271 270
286 287 287 288 289 289 288 287 286 284 283 283 282 282 284 284 283 282 281 280 281 282 281 280 279 278 278 277 276 276 276 276 275 275 274 274 274 273 272 272 271 270 270
285 285 285 286 286 286 286 286 285 284 282 281 280 280 279 280 281 281 280 280 280 280 279 279 278 277 277 276 276 275 275 275 274 274 274 273 273 273 272 271 271 270 270